Retour au catalogue

SATCOM 4

ActifCommunicationsGEO
NORAD 13035·PAYLOAD·🇺🇸 United States

Lancé Jan 16, 1982 depuis Cape Canaveral Space Force Station

Loading…

TLE

FraisSource: Space-Track

Époque: Sep 13, 2026, 20:44 UTC

1 13035U 82004A   26256.86451241  .00000049  00000-0  00000+0 0  9990
2 13035  12.6977 334.9661 0050535 206.6977 153.0589  0.99592723126098

Suivez SATCOM 4 en temps réel avec AllMySat

Download on the App Store